This is the latest recevied weather packets stored in our database for station/object K5FEP. If no packets are shown the sender has not sent any weather packets the latest 10 day(s).
| Time | Temp. | Humidity | Pressure | Rain* | Wind** | Luminosity | Snow |
|---|---|---|---|---|---|---|---|
| 1777987829 | 20° C | 52% | 1015.2 hPa | 0 mm | - | 531 W/m² | - |
| 1777987526 | 20° C | 53% | 1015.1 hPa | 0 mm | - | 512 W/m² | - |
| 1777987224 | 20° C | 52% | 1015.2 hPa | 0 mm | - | 492 W/m² | - |
| 1777986920 | 19.44° C | 54% | 1015.4 hPa | 0 mm | - | 472 W/m² | - |
| 1777986618 | 18.89° C | 55% | 1015.3 hPa | 0 mm | - | 453 W/m² | - |
| 1777986315 | 18.89° C | 56% | 1015.2 hPa | 0 mm | - | 434 W/m² | - |
| 1777986014 | 18.89° C | 55% | 1015.3 hPa | 0 mm | - | 415 W/m² | - |
| 1777985710 | 18.33° C | 56% | 1015.4 hPa | 0 mm | - | 386 W/m² | - |
| 1777985407 | 18.33° C | 57% | 1015.3 hPa | 0 mm | - | 367 W/m² | - |
| 1777985103 | 18.33° C | 57% | 1015.3 hPa | 0 mm | - | 357 W/m² | - |
| 1777984800 | 17.78° C | 58% | 1015.5 hPa | 0 mm | - | 337 W/m² | - |
| 1777984496 | 17.78° C | 59% | 1015.5 hPa | 0 mm | - | 316 W/m² | - |
| 1777984192 | 17.78° C | 60% | 1015.6 hPa | 0 mm | - | 258 W/m² | - |
| 1777983890 | 17.22° C | 63% | 1015.5 hPa | 0 mm | - | 223 W/m² | - |
| 1777983586 | 17.22° C | 62% | 1015.4 hPa | 0 mm | - | 163 W/m² | - |
| 1777983283 | 16.67° C | 64% | 1015.6 hPa | 0 mm | - | 198 W/m² | - |
| 1777982979 | 16.67° C | 65% | 1015.3 hPa | 0 mm | - | 154 W/m² | - |
| 1777982676 | 16.11° C | 65% | 1015.4 hPa | 0 mm | - | 132 W/m² | - |
| 1777982375 | 16.11° C | 66% | 1015.5 hPa | 0 mm | - | 142 W/m² | - |
| 1777982072 | 16.11° C | 68% | 1015.4 hPa | 0 mm | - | 140 W/m² | - |
| 1777981770 | 15.56° C | 67% | 1015.1 hPa | 0 mm | - | 71 W/m² | - |
| 1777981466 | 15° C | 69% | 1015.1 hPa | 0 mm | - | 143 W/m² | - |
| 1777981162 | 14.44° C | 71% | 1015 hPa | 0 mm | - | 71 W/m² | - |
| 1777980859 | 14.44° C | 72% | 1015.2 hPa | 0 mm | - | 69 W/m² | - |
| 1777980555 | 13.89° C | 72% | 1014.9 hPa | 0 mm | - | 67 W/m² | - |
* Rain latest hour (hover to see other rain measurements)
** Current wind speed in m/s (hover to see current wind gust speed)